Retour au catalogue

CZ-6A DEB

ActifSSO
NORAD 54990·DEBRIS·🇨🇳 China

Lancé Nov 11, 2022 depuis Taiyuan Satellite Launch Center

Loading…

Prochains Passages (prochaines 24 heures)

TLE

FraisSource: Space-Track

Époque: Sep 14, 2026, 09:23 UTC

1 54990U 22151UF  26257.39112607  .00005037  00000-0  10033-2 0  9993
2 54990  98.6349 315.1875 0074419  53.5605 307.2424 14.60746269201401

Suivez CZ-6A DEB en temps réel avec AllMySat

Download on the App Store